This demonstration page uses our WeatherBlox Daily Observations layout. Learn more.

36.17497, -115.13722

Hourly Observations for January 11, 2020

Temp ( °F °C ) Dew Point ( °F °C ) Humidity (%) Winds ( mph kmh ) Pressure ( in mb ) Visibility ( mi km ) Precip ( " mm )
12:53 am 00:53 Clear 38 3.3 18 -7.8 44 44 WNW 6 9 30.24 1024 10 16.0934 0 0
1:53 am 01:53 Clear 38 3.3 17 -8.3 43 43 NW 6 9 30.23 1024 10 16.0934 0 0
2:53 am 02:53 Clear 36 2.2 18 -7.8 48 48 WNW 3 6 30.21 1023 10 16.0934 0 0
3:53 am 03:53 Clear 34 1.1 18 -7.8 52 52 NNE 6 9 30.18 1022 10 16.0934 0 0
4:53 am 04:53 Clear 34 1.1 18 -7.8 52 52 W 3 6 30.17 1022 10 16.0934 0 0
5:53 am 05:53 Clear 35 1.7 17 -8.3 48 48 SSW 3 6 30.15 1021 10 16.0934 0 0
6:53 am 06:53 Sunny 34 1.1 17 -8.3 50 50 W 3 6 30.14 1021 10 16.0934 0 0
7:53 am 07:53 Sunny 37 2.8 18 -7.8 46 46 S 3 6 30.14 1021 10 16.0934 0 0
8:53 am 08:53 Sunny 40 4.4 17 -8.3 40 40 Calm 30.18 1022 10 16.0934 0 0
9:53 am 09:53 Sunny 46 7.8 17 -8.3 31 31 Calm 30.19 1022 10 16.0934 0 0
10:53 am 10:53 Sunny 47 8.3 16 -8.9 29 29 SE 7 11 30.14 1021 10 16.0934 0 0
11:53 am 11:53 Sunny 49 9.4 16 -8.9 27 27 E 3 6 30.09 1019 10 16.0934 0 0
12:53 pm 12:53 Sunny 50 10 16 -8.9 26 26 Calm 30.06 1018 10 16.0934 0 0
1:53 pm 13:53 Sunny 50 10 16 -8.9 26 26 VRB 3 6 30.03 1017 10 16.0934 0 0
2:53 pm 14:53 Sunny 51 10.6 14 -10 23 23 Calm 30.02 1017 10 16.0934 0 0
3:53 pm 15:53 Sunny 52 11.1 16 -8.9 24 24 Calm 30.02 1017 10 16.0934 0 0
4:53 pm 16:53 Clear 50 10 16 -8.9 26 26 NE 5 7 30.04 1017 10 16.0934 0 0
5:53 pm 17:53 Clear 49 9.4 17 -8.3 28 28 Calm 30.06 1018 10 16.0934 0 0
6:53 pm 18:53 Clear 46 7.8 19 -7.2 34 34 W 3 6 30.09 1019 10 16.0934 0 0
7:53 pm 19:53 Clear 43 6.1 20 -6.7 40 40 WNW 5 7 30.1 1019 10 16.0934 0 0
8:53 pm 20:53 Clear 41 5 20 -6.7 43 43 W 7 11 30.11 1020 10 16.0934 0 0
9:53 pm 21:53 Clear 40 4.4 20 -6.7 45 45 NW 3 6 30.13 1020 10 16.0934 0 0
10:53 pm 22:53 Clear 41 5 19 -7.2 41 41 Calm 30.15 1021 10 16.0934 0 0
11:53 pm 23:53 Clear 41 5 17 -8.3 38 38 Calm 30.14 1021 10 16.0934 0 0

Powered by AerisWeather